This is the latest recevied weather packets stored in our database for station/object KE8KMM. If no packets are shown the sender has not sent any weather packets the latest 10 day(s).
| Time | Temp. | Humidity | Pressure | Rain* | Wind** | Luminosity | Snow |
|---|---|---|---|---|---|---|---|
| 1777576706 | 11.67° C | 71% | 1013.3 hPa | 0 mm | - | 708 W/m² | - |
| 1777576404 | 11.67° C | 75% | 1013.3 hPa | 0 mm | - | 128 W/m² | - |
| 1777576102 | 11.67° C | 74% | 1013.2 hPa | 0 mm | - | 77 W/m² | - |
| 1777575797 | 11.67° C | 71% | 1013.2 hPa | 0 mm | - | 66 W/m² | - |
| 1777575494 | 12.22° C | 71% | 1013.2 hPa | 0 mm | - | 125 W/m² | - |
| 1777575190 | 11.67° C | 71% | 1012.9 hPa | 0 mm | - | 867 W/m² | - |
| 1777574886 | 11.11° C | 74% | 1013.2 hPa | 0 mm | - | 259 W/m² | - |
| 1777574583 | 10.56° C | 72% | 1013.2 hPa | 0 mm | - | 305 W/m² | - |
| 1777574279 | 10.56° C | 76% | 1013.1 hPa | 0 mm | - | 341 W/m² | - |
| 1777573974 | 10° C | 75% | 1013.3 hPa | 0 mm | - | 273 W/m² | - |
| 1777573669 | 10.56° C | 78% | 1013.5 hPa | 0 mm | - | 196 W/m² | - |
| 1777573366 | 10.56° C | 76% | 1013.5 hPa | 0 mm | - | 101 W/m² | - |
| 1777573061 | 10.56° C | 76% | 1013.4 hPa | 0 mm | - | 80 W/m² | - |
| 1777572759 | 10.56° C | 75% | 1013.6 hPa | 0 mm | - | 147 W/m² | - |
| 1777572453 | 10.56° C | 76% | 1013.4 hPa | 0 mm | - | 129 W/m² | - |
| 1777572150 | 11.11° C | 72% | 1013.5 hPa | 0 mm | - | 140 W/m² | - |
| 1777571845 | 12.22° C | 75% | 1013.4 hPa | 0 mm | - | 231 W/m² | - |
| 1777571541 | 11.67° C | 78% | 1013.6 hPa | 0 mm | - | 828 W/m² | - |
| 1777571238 | 10.56° C | 78% | 1013.7 hPa | 0 mm | - | 783 W/m² | - |
| 1777570934 | 10° C | 80% | 1013.8 hPa | 0 mm | - | 587 W/m² | - |
| 1777570630 | 10° C | 79% | 1013.9 hPa | 0 mm | - | 249 W/m² | - |
| 1777570327 | 10° C | 76% | 1013.9 hPa | 0 mm | - | 226 W/m² | - |
| 1777570022 | 10° C | 77% | 1013.7 hPa | 0 mm | - | 104 W/m² | - |
| 1777569718 | 10° C | 76% | 1013.7 hPa | 0 mm | - | 88 W/m² | - |
| 1777569414 | 10° C | 74% | 1013.7 hPa | 0 mm | - | 84 W/m² | - |
* Rain latest hour (hover to see other rain measurements)
** Current wind speed in m/s (hover to see current wind gust speed)